Cloud_Cover
50 86 80 80 24 58 97 100 100 100 100 100 100 100 100 100 100 100 77 89 89 97 99 99 98 100 100 100 100 100 100 100 100 100 100 99 28 100 100 100 97 100 67 5 5 5 97 100 100 95 18 6 5 5
90 80 61 87 40 32 58 100 100 100 100 100 100 100 100 100 100 100 67 88 100 100 56 100 99 100 100 100 100 100 100 100 100 100 100 100 91 92 100 100 100 100 96 98 6 53 100 100 26 5 5 5 6 9
90 57 72 23 6 57 62 64 79 100 100 100 100 100 100 100 100 100 100 100 100 94 21 47 100 100 100 100 100 100 100 100 100 100 100 100 100 96 100 100 100 100 100 54 62 31 100 100 98 83 25 5 5 5
100 99 74 84 90 81 78 99 85 66 88 81 100 100 84 100 100 100 100 100 89 48 74 10 16 100 100 100 100 100 100 100 100 100 100 100 100 100 100 100 100 100 100 45 58 70 99 100 100 47 4 5 5 6
100 100 100 100 100 100 89 58 61 85 60 53 14 56 100 55 100 100 100 100 100 96 21 11 3 25 100 100 100 100 100 100 100 100 100 100 100 100 100 100 100 100 100 100 100 100 100 73 5 5 5 5 5 70
100 100 100 100 100 100 100 100 100 82 89 15 68 34 57 99 100 100 100 100 100 63 82 12 3 3 5 89 100 100 100 100 100 100 100 100 100 100 92 16 100 100 100 100 100 100 56 30 5 5 87 58 32 6
100 100 100 100 100 100 100 100 100 100 78 100 100 100 100 100 100 100 100 75 100 96 97 64 5 0 0 5 69 100 100 100 100 100 100 89 100 100 100 79 100 100 100 100 100 100 68 30 21 8 51 14 6 5
100 93 100 100 100 100 100 100 100 100 99 100 96 100 100 100 100 100 99 100 100 100 100 90 24 5 1 14 6 80 100 100 100 100 100 100 100 100 100 80 100 100 100 100 100 100 100 99 13 6 42 47 21 99
99 100 100 30 100 100 100 100 100 100 100 100 95 100 100 100 100 100 100 100 100 100 63 85 46 5 2 13 20 95 81 100 100 100 100 97 100 94 8 82 100 100 100 100 100 100 100 100 70 22 58 93 99 100
96 100 100 92 21 20 98 100 100 100 100 100 100 100 100 100 100 100 100 100 100 100 73 69 6 19 5 40 9 56 93 100 100 100 100 100 51 0 4 6 99 100 100 100 100 100 100 100 100 100 99 100 100 100
100 100 100 98 100 100 52 100 100 100 100 100 100 100 100 100 100 100 100 85 90 100 74 60 5 2 5 4 5 40 100 100 95 62 86 52 18 4 4 45 99 100 100 100 100 100 100 100 100 100 100 100 100 100
100 100 100 100 100 96 100 100 100 100 100 100 94 100 100 100 100 100 100 90 99 53 68 100 100 98 2 7 5 5 64 100 96 8 67 9 7 3 5 18 100 100 100 100 100 100 100 100 100 100 100 100 100 100
100 100 96 51 100 92 100 100 100 100 100 100 100 100 100 100 98 63 99 96 97 100 100 100 100 100 5 5 85 13 99 100 94 100 55 4 14 42 5 13 94 100 100 100 100 100 100 100 100 100 100 100 100 100
99 99 100 84 88 46 90 100 100 100 100 100 100 100 96 100 34 95 100 100 100 100 100 100 100 100 100 45 5 7 82 100 100 97 4 5 1 53 12 10 100 100 100 100 100 100 100 100 100 100 100 100 66 39
100 100 100 100 72 99 100 100 100 100 100 100 100 81 82 100 100 100 100 100 100 100 100 100 98 100 100 62 51 88 100 100 100 57 0 0 0 4 57 13 27 100 100 100 100 100 100 100 100 97 97 100 100 93
100 100 100 100 100 100 100 100 100 100 100 100 14 61 100 98 100 100 100 100 100 100 100 24 12 57 37 3 55 100 100 100 100 98 10 0 0 0 0 36 100 100 100 100 100 100 100 90 82 62 27 77 100 100
100 100 100 100 100 100 100 100 100 100 100 100 79 100 100 100 100 100 100 100 100 100 6 5 5 0 22 29 0 100 100 100 100 99 4 0 0 0 0 0 3 10 8 15 100 100 93 89 45 74 100 100 100 100
100 100 100 100 100 100 100 100 100 100 85 100 100 100 100 100 100 100 100 100 100 93 4 2 4 5 4 29 15 100 100 100 100 93 91 25 9 9 3 0 0 0 5 5 5 27 95 85 66 70 58 85 100 100
100 100 100 100 100 100 100 100 100 100 100 84 68 88 97 100 100 91 9 5 7 5 4 5 0 4 3 85 100 100 100 100 100 60 100 100 80 5 5 3 0 0 2 5 5 6 5 10 90 91 44 39 93 100
100 100 100 100 100 100 100 100 100 100 100 99 98 100 100 100 14 8 10 9 5 5 6 16 97 90 100 100 100 100 100 100 100 96 100 100 90 6 6 3 17 8 5 5 6 67 90 72 78 71 89 100 100 100
100 90 100 99 88 82 91 100 100 100 100 100 100 100 100 100 100 100 81 16 37 64 63 100 100 100 100 100 100 100 100 100 83 100 100 99 90 20 26 11 5 5 5 5 5 6 81 100 100 100 100 100 100 100
93 99 100 100 100 100 100 100 100 100 100 100 100 100 100 100 100 100 98 100 42 100 100 100 100 100 100 100 100 100 100 100 100 47 100 100 100 42 30 11 5 6 5 5 5 10 79 96 100 100 100 100 100 100
100 100 100 100 100 100 100 100 100 100 100 100 100 100 100 100 100 98 100 100 97 100 100 100 100 100 100 100 100 100 100 100 100 88 94 100 100 73 5 5 5 15 62 47 5 36 91 100 100 100 100 100 100 100
100 100 100 100 100 100 100 100 100 100 100 100 100 100 100 100 100 100 100 100 100 100 100 100 100 100 100 100 100 100 100 100 100 100 96 91 97 89 53 56 12 7 34 65 53 100 100 100 100 100 100 100 100 100
100 100 100 100 100 88 100 100 99 100 100 100 100 100 100 100 100 100 100 100 100 100 100 100 100 100 100 100 100 100 100 100 100 96 92 75 92 95 97 100 88 28 63 95 100 100 100 100 100 100 100 100 100 100
100 29 77 100 82 96 78 99 100 100 100 100 100 100 100 100 100 100 100 100 100 100 100 92 91 94 100 93 83 100 100 100 100 97 96 96 100 99 91 100 100 100 100 100 100 100 100 100 100 100 100 100 100 100
91 75 76 80 80 93 98 100 100 100 100 100 100 100 100 100 100 100 100 100 99 100 100 100 100 100 100 100 100 100 99 100 100 100 100 100 100 100 100 100 100 100 100 100 100 100 100 100 100 100 100 100 100 100
98 62 43 69 85 63 89 97 99 100 100 100 100 100 100 100 100 100 100 100 100 100 100 100 98 97 91 100 100 93 99 100 100 100 100 100 100 100 100 100 100 100 100 100 100 100 100 100 100 100 100 100 100 100
97 76 88 100 92 98 92 91 86 82 87 81 77 98 94 97 100 100 100 95 100 99 77 79 100 97 92 89 96 100 100 100 100 100 100 100 100 100 100 100 100 100 100 100 100 100 100 100 100 100 100 100 100 100
95 100 100 99 100 100 100 100 97 93 74 66 62 90 89 99 100 100 96 90 97 84 83 89 100 100 100 100 100 100 100 100 100 100 100 100 100 100 100 100 100 100 100 100 100 100 100 100 100 100 100 96 100 100
52 91 84 73 98 100 100 100 99 73 59 80 72 63 94 82 87 88 82 92 100 100 100 100 100 100 100 100 100 100 100 100 100 100 100 100 100 100 100 100 100 100 100 100 100 100 100 100 100 100 100 100 100 100
20 28 58 97 100 100 100 99 91 87 100 100 100 93 73 48 94 64 85 95 94 100 100 100 100 100 100 100 100 100 100 100 100 100 100 100 100 100 100 100 100 100 100 100 100 100 100 100 100 100 100 100 100 100
96 100 98 88 100 100 90 35 84 77 70 97 92 100 97 14 33 64 87 87 100 94 89 100 100 100 100 100 100 100 100 100 100 100 100 100 100 100 100 100 100 100 100 100 100 100 100 100 100 100 100 100 100 100